Chillicothe, MO

7:29 PM CDT on April 22, 2018 (GMT -0500)
Chillicothe

Weather History for KCDJ - July, 2012

Change the Weather History Date:

Sunday, July 29, 2012

  Actual Average (KIRK) Record (KIRK)
Temperature  
Mean Temperature 86 °F -  
Max Temperature 100 °F 85 °F 104 °F (1934)
Min Temperature 71 °F 63 °F 47 °F (2013)
Cooling Degree Days 20    
Growing Degree Days 36 (Base 50)    
Moisture  
Dew Point 66 °F    
Average Humidity 58    
Maximum Humidity 81    
Minimum Humidity 31    
Precipitation  
Precipitation 0.45 in - - ()
Sea Level Pressure  
Sea Level Pressure 29.90 in    
Wind  
Wind Speed 9 mph (ESE)    
Max Wind Speed 20 mph    
Max Gust Speed 32 mph    
Averages and records for this station are not official NWS values.
T = Trace of Precipitation, MM = Missing Value Source: NWS Daily Summary

Daily Weather History Graph

Daily Weather History Graph

Search for Another Location

Airport or City:

Astronomy

Jul. 29, 2012 Rise Set
Actual Time 6:10 AM CDT 8:30 PM CDT
Civil Twilight 5:40 AM CDT 9:00 PM CDT
Nautical Twilight 5:02 AM CDT 9:37 PM CDT
Astronomical Twilight 4:21 AM CDT 10:19 PM CDT
Moon 5:37 PM CDT (7/29) 2:25 AM CDT (7/29)
Length of Visible Light 15h 20m
Length of Day
14h 19m
Waxing Gibbous, 85% of the Moon is Illuminated
Jul 29
Waxing Gibbous
Aug 1
Full
Aug 9
Last Quarter
Aug 17
New
Aug 24
First Quarter

Hourly Weather History & Observations

Time (CDT) Temp. Heat Index Dew Point Humidity Pressure Visibility Wind Dir Wind Speed Gust Speed Precip Events Conditions
12:52 AM 72.0 °F - 64.9 °F 78% 29.96 in - SSE 19.6 mph 32.2 mph 0.45 in   Unknown
1:52 AM 73.9 °F - 64.0 °F 71% 29.95 in - SE 9.2 mph 18.4 mph N/A   Unknown
2:52 AM 73.9 °F - 64.0 °F 71% 29.97 in - SE 4.6 mph - N/A   Unknown
3:52 AM 73.0 °F - 64.0 °F 73% 29.95 in - ESE 6.9 mph - N/A   Unknown
4:52 AM 73.0 °F - 64.0 °F 73% 29.98 in - East 8.1 mph - N/A   Unknown
5:52 AM 71.1 °F - 64.0 °F 78% 29.99 in - Calm Calm - N/A   Unknown
6:52 AM 71.1 °F - 64.0 °F 78% 29.99 in - SE 8.1 mph - N/A   Unknown
7:52 AM 71.1 °F - 64.9 °F 81% 30.00 in - Variable 6.9 mph - N/A   Unknown
8:52 AM 75.0 °F - 64.9 °F 71% 30.00 in - SE 8.1 mph - N/A   Unknown
9:52 AM 79.0 °F - 66.0 °F 64% 29.98 in - SE 8.1 mph 23.0 mph N/A   Unknown
10:52 AM 82.0 °F 83.8 °F 64.9 °F 56% 29.96 in - SE 11.5 mph 24.2 mph N/A   Unknown
11:52 AM 84.0 °F 86.3 °F 66.0 °F 55% 29.94 in - SSE 11.5 mph 19.6 mph N/A   Unknown
12:52 PM 89.1 °F 92.1 °F 66.9 °F 48% 29.91 in - SSE 8.1 mph 18.4 mph N/A   Unknown
1:52 PM 91.9 °F 95.4 °F 66.9 °F 44% 29.88 in - SSE 8.1 mph - N/A   Unknown
2:52 PM 96.1 °F 99.3 °F 66.0 °F 37% 29.86 in - Variable 6.9 mph - N/A   Unknown
3:52 PM 97.0 °F 99.9 °F 64.9 °F 35% 29.84 in - Calm Calm - N/A   Unknown
4:52 PM 99.0 °F 102.3 °F 64.9 °F 33% 29.81 in - Variable 3.5 mph - N/A   Unknown
5:52 PM 100.9 °F 104.6 °F 64.9 °F 31% 29.80 in - NNE 3.5 mph - N/A   Unknown
6:52 PM 96.1 °F 101.6 °F 69.1 °F 41% 29.80 in - ENE 8.1 mph - N/A   Unknown
7:52 PM 93.0 °F 99.0 °F 70.0 °F 47% 29.81 in - NE 4.6 mph - N/A   Unknown
8:52 PM 89.1 °F 95.0 °F 71.1 °F 55% 29.82 in - ENE 4.6 mph - N/A   Unknown
9:52 PM 87.1 °F 91.3 °F 69.1 °F 55% 29.84 in - Variable 3.5 mph - N/A   Unknown
10:52 PM 84.0 °F 87.8 °F 69.1 °F 61% 29.84 in - East 4.6 mph - N/A   Unknown
11:52 PM 82.0 °F 84.9 °F 68.0 °F 62% 29.84 in - East 3.5 mph - N/A   Unknown